Content
SEND FEEDBACK

Daily
Averages
Monthly
Summary
United States of America

HOKAH, MINNESOTA


Home > North America > United States > Minnesota
Elevation: 650 feet     Latitude: 43 46N     Longitude: 091 21W

WEATHER
 
SELECT A DAY
Number of Records: 203,182;   Date Range: 1/1/95 - 12/27/14
 
SHARE

PRINT THIS DATA

[ ← Previous Day ]
WEATHER ALMANAC - JANUARY 31, 2013
[ Next Day → ]
[ °C ]   °F
Weather ElementAverageHighLow
Temperature7.4 °F12.9 °F (1:53 am)-2 °F (11:53 pm)
Dewpoint0.2 °F8.1 °F (2:53 am)-9.9 °F (11:53 pm)
Humidity72.8 %85 % (3:04 am)62 % (2:02 pm)
Barometer29.95 in30.31 in (11:53 pm)29.73 in (2:37 am)
Wind Speed14.1 mph20.7 mph (5:01 pm)
Wind Gust26.5 mph (5:01 pm)
Weather ElementAverage
Visibility5.1 mi
Wind DirectionWNW (301.4 °)

Weather ElementTotal
Precipitation0.01 in
Heating Degree Days59.6 (Base 65)
Averaged from 51 records on January 31, 2013
WEATHER CONDITIONS BREAKOUT
WIND DIRECTION BREAKOUT
WEATHER BY HOUR - JANUARY 31, 2013
[ °C ]   °F
Local TimeTemperatureDewpointHumidityBarometerVisibilityWind DirectionWind SpeedGust SpeedPrecipitationEventsConditions
1:53 AM12.9 °F3.0 °F65 %29.78 in10.0 miNW (310°)16.1 mph21.9 mph0.00 inOvercast
2:37 AM12.2 °F6.8 °F79 %29.73 in2.5 miWNW (300°)11.5 mph0.00 inSnowLight Snow
2:53 AM12.0 °F8.1 °F84 %29.80 in1.2 miNW (310°)9.2 mph0.01 inSnowLight Snow
3:04 AM10.4 °F6.8 °F85 %29.74 in3.0 miNW (310°)9.2 mph0.00 inSnowLight Snow
3:43 AM10.4 °F3.2 °F73 %29.74 in10.0 miWNW (300°)11.5 mph0.00 inOvercast
3:53 AM10.9 °F3.9 °F73 %29.80 in7.0 miWNW (290°)15.0 mph0.00 inSnowLight Snow
4:53 AM10.0 °F1.9 °F70 %29.82 in10.0 miWNW (290°)12.7 mph0.00 inMostly Cloudy
5:53 AM8.1 °F0.0 °F70 %29.84 in10.0 miWNW (300°)17.3 mphMostly Cloudy
6:14 AM8.6 °F-0.4 °F67 %29.79 in10.0 miNW (310°)16.1 mphMostly Cloudy
6:44 AM8.6 °F-0.4 °F67 %29.81 in10.0 miWNW (300°)11.5 mphOvercast
6:53 AM8.1 °F0.0 °F70 %29.88 in10.0 miWNW (300°)13.8 mphOvercast
7:17 AM8.6 °F3.2 °F79 %29.82 in1.8 miWNW (300°)9.2 mph0.00 inSnowLight Snow
7:23 AM8.6 °F3.2 °F79 %29.82 in2.0 miWNW (300°)8.1 mph0.00 inSnowLight Snow
7:38 AM8.6 °F1.4 °F73 %29.83 in6.0 miWNW (300°)12.7 mph0.00 inHaze
7:53 AM8.1 °F1.0 °F73 %29.91 in10.0 miWNW (300°)10.4 mph0.00 inOvercast
8:05 AM8.6 °F1.4 °F73 %29.84 in8.0 miWNW (300°)15.0 mphOvercast
8:18 AM8.6 °F1.4 °F73 %29.85 in7.0 miWNW (300°)12.7 mphOvercast
8:53 AM8.1 °F1.0 °F73 %29.93 in3.0 miWest (280°)12.7 mph0.00 inSnowLight Snow
9:00 AM8.6 °F1.4 °F73 %29.86 in2.0 miWest (280°)13.8 mph0.00 inSnowLight Snow
9:14 AM8.6 °F1.4 °F73 %29.87 in1.2 miWNW (290°)11.5 mph0.00 inSnowLight Snow
9:47 AM8.6 °F1.4 °F73 %29.88 in3.0 miWNW (300°)13.8 mph0.00 inSnowLight Snow
9:53 AM8.1 °F1.0 °F73 %29.96 in4.0 miWNW (300°)15.0 mph0.00 inSnowLight Snow
10:53 AM8.1 °F1.0 °F73 %29.99 in2.5 miNW (310°)16.1 mph0.00 inSnowLight Snow
11:02 AM8.6 °F1.4 °F73 %29.92 in1.2 miNW (310°)15.0 mph0.00 inSnowLight Snow
11:35 AM8.6 °F-0.4 °F67 %29.92 in3.0 miWNW (300°)12.7 mph0.00 inSnowLight Snow
11:53 AM8.1 °F0.0 °F70 %30.00 in6.0 miNW (310°)15.0 mph0.00 inSnowBlowing Snow
12:12 PM8.6 °F-0.4 °F67 %29.93 in6.0 miNW (310°)15.0 mphHaze
12:24 PM8.6 °F-0.4 °F67 %29.93 in2.0 miNW (310°)18.4 mph0.00 inSnowLight Snow
12:33 PM8.6 °F-0.4 °F67 %29.94 in4.0 miWNW (290°)16.1 mph0.00 inOvercast
12:53 PM8.1 °F0.0 °F70 %30.01 in3.0 miNW (310°)16.1 mph24.2 mph0.00 inOvercast
1:13 PM8.6 °F1.4 °F73 %29.94 in2.0 miNW (310°)16.1 mph0.00 inSnowLight Snow
1:42 PM8.6 °F-0.4 °F67 %29.95 in8.0 miNW (310°)16.1 mph0.00 inOvercast
1:53 PM8.1 °F-0.9 °F67 %30.03 in10.0 miNW (310°)15.0 mph0.00 inOvercast
2:02 PM8.6 °F-2.2 °F62 %29.96 in6.0 miWNW (300°)18.4 mphSnowBlowing Snow
2:53 PM7.0 °F1.0 °F77 %30.06 in3.0 miWNW (300°)13.8 mph0.00 inSnowLight Snow
3:15 PM6.8 °F-0.4 °F72 %29.99 in2.5 miWest (280°)16.1 mph0.00 inSnowLight Snow
3:37 PM6.8 °F-0.4 °F72 %30.01 in1.5 miWNW (290°)15.0 mph0.00 inSnowLight Snow
3:49 PM6.8 °F-0.4 °F72 %30.02 in2.0 miWNW (300°)12.7 mph0.00 inSnowLight Snow
3:53 PM6.1 °F0.0 °F76 %30.09 in1.8 miWNW (300°)13.8 mph0.00 inSnowLight Snow
4:27 PM6.8 °F1.4 °F79 %30.03 in0.8 miNW (310°)16.1 mph0.00 inSnowLight Snow
4:44 PM5.0 °F1.4 °F85 %30.04 in0.5 miNW (310°)16.1 mph0.00 inFog-SnowLight Snow
4:53 PM5.0 °F1.0 °F84 %30.12 in0.5 miNW (310°)17.3 mph0.00 inFog-SnowLight Snow
5:01 PM5.0 °F-2.2 °F72 %30.05 in1.0 miNW (320°)20.7 mph26.5 mph0.00 inSnowLight Snow
5:07 PM3.2 °F-2.2 °F78 %30.05 in3.0 miNW (320°)17.3 mph26.5 mph0.00 inSnowBlowing Snow
5:19 PM3.2 °F-2.2 °F78 %30.06 in8.0 miNW (310°)15.0 mph0.00 inOvercast
5:39 PM3.2 °F-0.4 °F85 %30.08 in2.5 miNW (310°)16.1 mph0.00 inSnowLight Snow
6:53 PM3.0 °F-5.1 °F69 %30.19 in10.0 miWNW (300°)12.7 mph0.00 inScattered Clouds
7:53 PM1.9 °F-6.0 °F69 %30.22 in10.0 miWNW (300°)13.8 mphPartly Cloudy
8:53 PM1.0 °F-7.1 °F69 %30.25 in10.0 miWNW (290°)11.5 mphClear
9:53 PM0.0 °F-9.0 °F66 %30.27 in10.0 miWNW (290°)12.7 mphClear
11:53 PM-2.0 °F-9.9 °F69 %30.31 in10.0 miWest (280°)10.4 mphClear
Hourly data recorded from KLSE, located miles away from Hokah, Minnesota







STORIES FROM OUR PARTNERS